FW6363 Weather Reports


time (UTC)temp
C
wind
direction
speed
KPH
gust
KPH
rain 1hr
cm
rain 24hr
cm
rain mn
cm
humidity
%
barometer
mb
20260502151548 25 25 14.5 27.4 0.00 0.00 0.00 32 1014.4
20260502123047 22 360 1.6 6.4 0.00 0.00 0.00 23 1012.6
20260502121547 22 48 0.0 3.2 0.00 0.00 0.00 23 1012.3
20260502114626 23 360 1.6 6.4 0.00 0.00 0.00 21 1012.3
20260502113050 23 0 0.0 6.4 0.00 0.00 0.00 21 1012.2
20260502111546 24 360 4.8 19.3 0.00 0.00 0.00 20 1011.9
20260502110051 23 360 8.0 17.7 0.00 0.00 0.00 20 1011.9
20260502104550 24 360 4.8 19.3 0.00 0.00 0.00 20 1011.7
20260502103107 24 360 11.3 25.7 0.00 0.00 0.00 20 1011.6
20260502101603 24 360 9.7 24.1 0.00 0.00 0.00 21 1011.6
20260502100206 23 360 4.8 20.9 0.00 0.00 0.00 21 1011.6
20260502070104 25 360 8.0 14.5 0.00 0.00 0.00 21 1011.3
20260502064613 25 360 3.2 8.0 0.00 0.00 0.00 19 1011.2
20260502063054 26 360 1.6 4.8 0.00 0.00 0.00 19 1011.1
20260502061546 26 0 1.6 9.7 0.00 0.00 0.00 18 1010.9
20260502060052 26 360 6.4 17.7 0.00 0.00 0.00 20 1010.9
20260502054552 26 360 9.7 17.7 0.00 0.00 0.00 19 1010.8
20260502053057 26 360 0.0 4.8 0.00 0.00 0.00 17 1010.6
20260502051551 26 360 3.2 4.8 0.00 0.00 0.00 17 1010.7
20260502050052 26 360 4.8 6.4 0.00 0.00 0.00 18 1010.6
20260502044546 27 360 3.2 6.4 0.00 0.00 0.00 18 1010.4
20260502043117 27 360 4.8 9.7 0.00 0.00 0.00 18 1010.4
20260502041558 27 360 4.8 9.7 0.00 0.00 0.00 18 1010.3
20260502040045 27 360 4.8 9.7 0.00 0.00 0.00 18 1010.2
20260502034545 27 360 6.4 9.7 0.00 0.00 0.00 19 1009.9
20260502033054 27 360 6.4 12.9 0.00 0.00 0.00 19 1009.9
20260502031547 27 360 4.8 19.3 0.00 0.00 0.00 19 1009.6
20260502030050 27 360 9.7 14.5 0.00 0.00 0.00 20 1009.5
20260502024551 27 360 9.7 16.1 0.00 0.00 0.00 21 1009.2
20260502023050 27 360 6.4 9.7 0.00 0.00 0.00 20 1008.9
20260502021547 27 360 4.8 9.7 0.00 0.00 0.00 20 1008.9
20260502020047 28 360 4.8 14.5 0.00 0.00 0.00 19 1008.9
20260502014546 28 360 6.4 16.1 0.00 0.00 0.00 19 1009.0
20260502013051 28 360 11.3 17.7 0.00 0.00 0.00 18 1008.9
20260502011545 28 360 11.3 20.9 0.00 0.00 0.00 18 1009.0
20260502010044 29 360 12.9 22.5 0.00 0.00 0.00 18 1009.0
20260502004547 29 360 8.0 20.9 0.00 0.00 0.00 18 1009.0
20260502003047 29 360 11.3 22.5 0.00 0.00 0.00 18 1009.1
20260502001550 29 360 8.0 22.5 0.00 0.00 0.00 18 1008.9
20260502000047 30 360 8.0 20.9 0.00 0.00 0.00 17 1009.1
20260501234553 30 360 6.4 19.3 0.00 0.00 0.00 16 1009.1
20260501233109 30 360 12.9 32.2 0.00 0.00 0.00 18 1009.2
20260501231614 30 360 6.4 27.4 0.00 0.00 0.00 19 1009.1
20260501230100 29 360 12.9 29.0 0.00 0.00 0.00 20 1009.3
20260501224559 30 360 11.3 27.4 0.00 0.00 0.00 21 1009.5
20260501223054 30 360 6.4 22.5 0.00 0.00 0.00 21 1009.6
20260501221546 29 360 12.9 32.2 0.00 0.00 0.00 21 1009.8
20260501220100 28 360 14.5 32.2 0.00 0.00 0.00 22 1010.0
20260501214550 30 360 9.7 20.9 0.00 0.00 0.00 19 1010.1
20260501213051 29 360 12.9 22.5 0.00 0.00 0.00 19 1010.4
20260501211552 30 360 14.5 24.1 0.00 0.00 0.00 20 1010.6
20260501210047 29 360 11.3 24.1 0.00 0.00 0.00 22 1010.9
20260501204559 29 360 6.4 19.3 0.00 0.00 0.00 22 1010.9
20260501203046 29 360 4.8 19.3 0.00 0.00 0.00 22 1011.1
20260501201549 28 360 14.5 25.7 0.00 0.00 0.00 23 1011.2
20260501200047 28 360 16.1 30.6 0.00 0.00 0.00 22 1011.1
20260501194548 29 360 6.4 20.9 0.00 0.00 0.00 22 1011.5
20260501193048 28 360 9.7 25.7 0.00 0.00 0.00 24 1011.6
20260501191545 27 360 11.3 27.4 0.00 0.00 0.00 25 1011.9
20260501190046 27 360 14.5 25.7 0.00 0.00 0.00 26 1012.0
20260501184551 27 360 3.2 20.9 0.00 0.00 0.00 27 1012.1
20260501183053 27 360 6.4 17.7 0.00 0.00 0.00 26 1012.3
20260501181547 27 360 1.6 12.9 0.00 0.00 0.00 27 1012.4
20260501180056 26 360 8.0 20.9 0.00 0.00 0.00 28 1012.7
20260501174545 26 360 3.2 14.5 0.00 0.00 0.00 29 1012.9
20260501173050 26 360 3.2 16.1 0.00 0.00 0.00 30 1012.8
20260501171556 26 360 4.8 16.1 0.00 0.00 0.00 30 1013.0
20260501170046 25 360 11.3 16.1 0.00 0.00 0.00 32 1012.9
20260501164547 25 360 3.2 12.9 0.00 0.00 0.00 32 1012.7
20260501163049 24 360 3.2 9.7 0.00 0.00 0.00 34 1012.8
20260501161550 23 360 3.2 16.1 0.00 0.00 0.00 35 1012.9
20260501160050 23 0 1.6 9.7 0.00 0.00 0.00 36 1012.8
20260501154553 23 360 1.6 12.9 0.00 0.00 0.00 37 1012.7
20260501153053 22 360 3.2 9.7 0.00 0.00 0.00 38 1012.5